User: anonymous   Login
Location: Unspecified
(0.0000°N, 0.0000°E)
Time: 06:56:06
(UTC+00:00)
Language:

OPTUS D2 - Orbit

View from above orbital plane
View from above orbital plane
View from above satellite
View from above satellite

Ground track
Ground track

The orbit data is extracted from the following two-line orbital elements,

1 32252U 07044A   18051.85429323 -.00000190 +00000-0 +00000-0 0  9991
2 32252 000.0405 294.3904 0003545 039.4973 276.3718 01.00271062038103
Epoch (UTC): 20 February 2018 20:30:10
Eccentricity: 0.0003545
inclination: 0.0405°
perigee height: 35771 km
apogee height: 35801 km
right ascension of ascending node: 294.3904°
argument of perigee: 39.4973°
revolutions per day: 1.00271062
mean anomaly at epoch: 276.3718°
orbit number at epoch: 3810

The dashed part of the orbit path shows where the satellite is in the earth's shadow,  

DLR